{"data":{"norad_id":54006,"intl_designator":"2022-125AU","name":"STARLINK-5096","alt_names":[],"object_type":"PAYLOAD","status":"ACTIVE","operator":null,"country":"US","launch_date":"2022-10-05","launch_site_code":"AFWTR","launch_vehicle":null,"mission":null,"orbit_class":"UNKNOWN","rcs_meters":null,"size_class":null,"mass_kg":null,"dimensions":null,"purposes":["comms"],"wikipedia_slug":null,"has_3d_model":false,"image_url":null,"decayed_at":null,"tle_current":{"epoch":"2026-09-20T16:29:47.399424Z","epoch_age_seconds":70727,"freshness":"FRESH","line1":"1 54006U 22125AU  26263.68735416  .00001056  00000+0  45778-4 0  9992","line2":"2 54006  53.1614  48.0793 0001055  84.2572 275.8550 15.31708610219036","mean_motion":15.3170861,"eccentricity":0.0001055,"inclination_deg":53.1614,"raan_deg":48.0793,"arg_perigee_deg":84.2572,"mean_anomaly_deg":275.855,"bstar":4.5778e-5,"rev_number":21903,"period_min":94.012659496639,"perigee_km":469.99177556865,"apogee_km":471.43688319915,"semimajor_km":6848.8513293839,"source":"CELESTRAK","updated_at":"2026-09-21T09:00:33.073537Z"}}}